Year,Month,Day,Hour,Minute,Value (Times are PST for temperature in C)
2010,02,16,00,01,9.10
2010,02,16,00,02,9.10
2010,02,16,00,04,9.10
2010,02,16,00,05,9.00
2010,02,16,00,06,9.00
2010,02,16,00,07,9.00
2010,02,16,00,08,9.00
2010,02,16,00,10,8.90
2010,02,16,00,11,9.00
2010,02,16,00,12,8.90
2010,02,16,00,13,8.90
2010,02,16,00,15,8.90
2010,02,16,00,16,8.90
2010,02,16,00,17,8.90
2010,02,16,00,18,8.90
2010,02,16,00,20,8.90
2010,02,16,00,21,8.90
2010,02,16,00,22,8.90
2010,02,16,00,23,8.90
2010,02,16,00,25,8.90
2010,02,16,00,26,8.90
2010,02,16,00,27,8.90
2010,02,16,00,28,8.90
2010,02,16,00,30,8.80
2010,02,16,00,32,8.80
2010,02,16,00,33,8.80
2010,02,16,00,34,8.80
2010,02,16,00,35,8.80
2010,02,16,00,37,8.80
2010,02,16,00,38,8.80
2010,02,16,00,40,8.80
2010,02,16,00,41,8.80
2010,02,16,00,43,8.80
2010,02,16,00,44,8.80
2010,02,16,00,45,8.80
2010,02,16,00,46,8.80
2010,02,16,00,47,8.80
2010,02,16,00,49,8.80
2010,02,16,00,50,8.80
2010,02,16,00,51,8.80
2010,02,16,00,52,8.80
2010,02,16,00,54,8.80
2010,02,16,00,55,8.70
2010,02,16,00,56,8.70
2010,02,16,00,57,8.70
2010,02,16,00,58,8.70
2010,02,16,01,00,8.70
2010,02,16,01,01,8.70
2010,02,16,01,02,8.70
2010,02,16,01,03,8.70
2010,02,16,01,04,8.70
2010,02,16,01,06,8.70
2010,02,16,01,07,8.70
2010,02,16,01,08,8.70
2010,02,16,01,10,8.70
2010,02,16,01,12,8.70
2010,02,16,01,13,8.70
2010,02,16,01,14,8.70
2010,02,16,01,15,8.70
2010,02,16,01,17,8.70
2010,02,16,01,18,8.70
2010,02,16,01,20,8.70
2010,02,16,01,21,8.70
2010,02,16,01,23,8.70
2010,02,16,01,24,8.70
2010,02,16,01,25,8.70
2010,02,16,01,26,8.70
2010,02,16,01,27,8.70
2010,02,16,01,28,8.70
2010,02,16,01,30,8.70
2010,02,16,01,33,8.70
2010,02,16,01,34,8.70
2010,02,16,01,35,8.60
2010,02,16,01,36,8.60
2010,02,16,01,38,8.60
2010,02,16,01,39,8.60
2010,02,16,01,40,8.60
2010,02,16,01,41,8.60
2010,02,16,01,42,8.60
2010,02,16,01,44,8.60
2010,02,16,01,45,8.60
2010,02,16,01,46,8.60
2010,02,16,01,47,8.60
2010,02,16,01,49,8.60
2010,02,16,01,50,8.60
2010,02,16,01,51,8.60
2010,02,16,01,52,8.60
2010,02,16,01,54,8.60
2010,02,16,01,55,8.60
2010,02,16,01,56,8.60
2010,02,16,01,57,8.60
2010,02,16,01,58,8.60
2010,02,16,02,00,8.60
2010,02,16,02,01,8.60
2010,02,16,02,02,8.60
2010,02,16,02,03,8.60
2010,02,16,02,04,8.50
2010,02,16,02,05,8.50
2010,02,16,02,07,8.50
2010,02,16,02,08,8.50
2010,02,16,02,10,8.50
2010,02,16,02,12,8.40
2010,02,16,02,13,8.50
2010,02,16,02,14,8.40
2010,02,16,02,15,8.40
2010,02,16,02,16,8.40
2010,02,16,02,18,8.40
2010,02,16,02,19,8.40
2010,02,16,02,20,8.40
2010,02,16,02,21,8.40
2010,02,16,02,22,8.40
2010,02,16,02,24,8.40
2010,02,16,02,25,8.40
2010,02,16,02,26,8.40
2010,02,16,02,27,8.40
2010,02,16,02,29,8.50
2010,02,16,02,30,8.50
2010,02,16,02,31,8.50
2010,02,16,02,32,8.50
2010,02,16,02,33,8.60
2010,02,16,02,34,8.60
2010,02,16,02,36,8.60
2010,02,16,02,37,8.60
2010,02,16,02,38,8.60
2010,02,16,02,39,8.60
2010,02,16,02,42,8.60
2010,02,16,02,43,8.60
2010,02,16,02,44,8.60
2010,02,16,02,45,8.60
2010,02,16,02,47,8.60
2010,02,16,02,48,8.60
2010,02,16,02,49,8.60
2010,02,16,02,52,8.60
2010,02,16,02,53,8.60
2010,02,16,02,54,8.60
2010,02,16,02,55,8.60
2010,02,16,02,57,8.60
2010,02,16,02,58,8.60
2010,02,16,03,00,8.60
2010,02,16,03,01,8.60
2010,02,16,03,03,8.60
2010,02,16,03,04,8.70
2010,02,16,03,05,8.60
2010,02,16,03,06,8.60
2010,02,16,03,08,8.70
2010,02,16,03,10,8.60
2010,02,16,03,11,8.60
2010,02,16,03,13,8.60
2010,02,16,03,14,8.60
2010,02,16,03,15,8.60
2010,02,16,03,16,8.60
2010,02,16,03,17,8.60
2010,02,16,03,19,8.60
2010,02,16,03,20,8.60
2010,02,16,03,21,8.60
2010,02,16,03,22,8.60
2010,02,16,03,24,8.60
2010,02,16,03,25,8.60
2010,02,16,03,26,8.60
2010,02,16,03,27,8.60
2010,02,16,03,29,8.60
2010,02,16,03,30,8.60
2010,02,16,03,32,8.60
2010,02,16,03,33,8.60
2010,02,16,03,34,8.60
2010,02,16,03,35,8.60
2010,02,16,03,37,8.60
2010,02,16,03,38,8.60
2010,02,16,03,40,8.60
2010,02,16,03,41,8.60
2010,02,16,03,42,8.50
2010,02,16,03,44,8.50
2010,02,16,03,45,8.50
2010,02,16,03,46,8.50
2010,02,16,03,47,8.50
2010,02,16,03,49,8.40
2010,02,16,03,50,8.40
2010,02,16,03,51,8.40
2010,02,16,03,52,8.40
2010,02,16,03,53,8.40
2010,02,16,03,55,8.40
2010,02,16,03,56,8.40
2010,02,16,03,57,8.40
2010,02,16,03,58,8.40
2010,02,16,04,00,8.40
2010,02,16,04,01,8.40
2010,02,16,04,02,8.30
2010,02,16,04,03,8.30
2010,02,16,04,04,8.30
2010,02,16,04,06,8.30
2010,02,16,04,07,8.30
2010,02,16,04,08,8.30
2010,02,16,04,09,8.30
2010,02,16,04,11,8.30
2010,02,16,04,12,8.30
2010,02,16,04,13,8.30
2010,02,16,04,14,8.30
2010,02,16,04,16,8.30
2010,02,16,04,17,8.30
2010,02,16,04,18,8.30
2010,02,16,04,20,8.30
2010,02,16,04,22,8.30
2010,02,16,04,23,8.30
2010,02,16,04,24,8.30
2010,02,16,04,25,8.30
2010,02,16,04,27,8.30
2010,02,16,04,28,8.30
2010,02,16,04,30,8.20
2010,02,16,04,31,8.20
2010,02,16,04,32,8.20
2010,02,16,04,33,8.20
2010,02,16,04,35,8.20
2010,02,16,04,36,8.20
2010,02,16,04,37,8.20
2010,02,16,04,38,8.20
2010,02,16,04,40,8.20
2010,02,16,04,41,8.20
2010,02,16,04,42,8.20
2010,02,16,04,43,8.20
2010,02,16,04,45,8.20
2010,02,16,04,46,8.10
2010,02,16,04,47,8.10
2010,02,16,04,48,8.10
2010,02,16,04,50,8.10
2010,02,16,04,51,8.10
2010,02,16,04,52,8.10
2010,02,16,04,53,8.10
2010,02,16,04,54,8.10
2010,02,16,04,56,8.10
2010,02,16,04,57,8.10
2010,02,16,04,58,8.10
2010,02,16,05,00,8.10
2010,02,16,05,03,8.10
2010,02,16,05,04,8.10
2010,02,16,05,05,8.10
2010,02,16,05,06,8.10
2010,02,16,05,07,8.10
2010,02,16,05,09,8.10
2010,02,16,05,10,8.00
2010,02,16,05,11,8.00
2010,02,16,05,12,8.00
2010,02,16,05,13,8.00
2010,02,16,05,15,8.00
2010,02,16,05,16,7.90
2010,02,16,05,17,8.00
2010,02,16,05,18,7.90
2010,02,16,05,20,7.90
2010,02,16,05,21,7.90
2010,02,16,05,22,7.90
2010,02,16,05,23,7.90
2010,02,16,05,24,7.90
2010,02,16,05,26,8.00
2010,02,16,05,27,7.90
2010,02,16,05,28,8.00
2010,02,16,05,29,8.00
2010,02,16,05,32,8.00
2010,02,16,05,33,8.10
2010,02,16,05,34,8.10
2010,02,16,05,35,8.10
2010,02,16,05,36,8.10
2010,02,16,05,38,8.10
2010,02,16,05,40,8.10
2010,02,16,05,41,8.10
2010,02,16,05,43,8.10
2010,02,16,05,44,8.10
2010,02,16,05,45,8.10
2010,02,16,05,46,8.10
2010,02,16,05,48,8.10
2010,02,16,05,50,8.10
2010,02,16,05,51,8.10
2010,02,16,05,53,8.10
2010,02,16,05,54,8.10
2010,02,16,05,55,8.10
2010,02,16,05,56,8.10
2010,02,16,05,57,8.10
2010,02,16,05,58,8.10
2010,02,16,06,00,8.00
2010,02,16,06,02,7.90
2010,02,16,06,03,7.90
2010,02,16,06,04,7.90
2010,02,16,06,06,7.90
2010,02,16,06,07,7.90
2010,02,16,06,08,7.90
2010,02,16,06,10,7.90
2010,02,16,06,11,7.80
2010,02,16,06,13,7.80
2010,02,16,06,14,7.80
2010,02,16,06,15,7.80
2010,02,16,06,16,7.80
2010,02,16,06,18,7.80
2010,02,16,06,20,7.80
2010,02,16,06,21,7.80
2010,02,16,06,22,7.80
2010,02,16,06,24,7.80
2010,02,16,06,25,7.80
2010,02,16,06,26,7.80
2010,02,16,06,27,7.80
2010,02,16,06,29,7.80
2010,02,16,06,30,7.80
2010,02,16,06,31,7.80
2010,02,16,06,32,7.70
2010,02,16,06,33,7.70
2010,02,16,06,35,7.70
2010,02,16,06,36,7.70
2010,02,16,06,37,7.70
2010,02,16,06,38,7.70
2010,02,16,06,39,7.60
2010,02,16,06,41,7.60
2010,02,16,06,42,7.60
2010,02,16,06,43,7.60
2010,02,16,06,44,7.60
2010,02,16,06,46,7.50
2010,02,16,06,47,7.50
2010,02,16,06,48,7.40
2010,02,16,06,49,7.40
2010,02,16,06,51,7.40
2010,02,16,06,52,7.40
2010,02,16,06,53,7.40
2010,02,16,06,54,7.40
2010,02,16,06,56,7.30
2010,02,16,06,57,7.30
2010,02,16,06,58,7.30
2010,02,16,06,59,7.30
2010,02,16,07,01,7.30
2010,02,16,07,02,7.30
2010,02,16,07,03,7.30
2010,02,16,07,04,7.30
2010,02,16,07,06,7.20
2010,02,16,07,07,7.20
2010,02,16,07,08,7.20
2010,02,16,07,10,7.20
2010,02,16,07,12,7.20
2010,02,16,07,13,7.20
2010,02,16,07,14,7.20
2010,02,16,07,15,7.10
2010,02,16,07,16,7.10
2010,02,16,07,18,7.10
2010,02,16,07,20,7.10
2010,02,16,07,21,7.10
2010,02,16,07,23,7.10
2010,02,16,07,24,7.10
2010,02,16,07,25,7.10
2010,02,16,07,26,7.10
2010,02,16,07,27,7.00
2010,02,16,07,28,7.00
2010,02,16,07,30,7.00
2010,02,16,07,32,7.00
2010,02,16,07,33,7.10
2010,02,16,07,34,7.10
2010,02,16,07,35,7.10
2010,02,16,07,36,7.10
2010,02,16,07,38,7.00
2010,02,16,07,40,7.00
2010,02,16,07,41,7.00
2010,02,16,07,43,7.00
2010,02,16,07,44,7.00
2010,02,16,07,45,7.00
2010,02,16,07,46,7.00
2010,02,16,07,47,7.00
2010,02,16,07,48,7.10
2010,02,16,07,49,7.00
2010,02,16,07,52,7.00
2010,02,16,07,53,7.00
2010,02,16,07,54,7.10
2010,02,16,07,55,7.10
2010,02,16,07,57,7.10
2010,02,16,07,58,7.10
2010,02,16,08,00,7.10
2010,02,16,08,02,7.10
2010,02,16,08,03,7.10
2010,02,16,08,04,7.10
2010,02,16,08,05,7.10
2010,02,16,08,06,7.10
2010,02,16,08,08,7.20
2010,02,16,08,10,7.20
2010,02,16,08,11,7.20
2010,02,16,08,13,7.20
2010,02,16,08,14,7.30
2010,02,16,08,15,7.30
2010,02,16,08,16,7.30
2010,02,16,08,17,7.30
2010,02,16,08,19,7.40
2010,02,16,08,20,7.40
2010,02,16,08,21,7.40
2010,02,16,08,22,7.40
2010,02,16,08,24,7.40
2010,02,16,08,25,7.50
2010,02,16,08,26,7.60
2010,02,16,08,27,7.60
2010,02,16,08,28,7.60
2010,02,16,08,30,7.70
2010,02,16,08,32,7.70
2010,02,16,08,33,7.80
2010,02,16,08,34,7.80
2010,02,16,08,35,7.80
2010,02,16,08,37,7.80
2010,02,16,08,38,7.80
2010,02,16,08,40,7.90
2010,02,16,08,43,8.00
2010,02,16,08,44,8.00
2010,02,16,08,45,8.00
2010,02,16,08,46,8.10
2010,02,16,08,48,8.10
2010,02,16,08,50,8.20
2010,02,16,08,51,8.20
2010,02,16,08,52,8.20
2010,02,16,08,54,8.30
2010,02,16,08,55,8.30
2010,02,16,08,56,8.40
2010,02,16,08,57,8.40
2010,02,16,08,59,8.40
2010,02,16,09,00,8.40
2010,02,16,09,01,8.50
2010,02,16,09,02,8.60
2010,02,16,09,03,8.60
2010,02,16,09,05,8.60
2010,02,16,09,06,8.60
2010,02,16,09,07,8.60
2010,02,16,09,08,8.70
2010,02,16,09,10,8.70
2010,02,16,09,11,8.70
2010,02,16,09,12,8.80
2010,02,16,09,13,8.80
2010,02,16,09,14,8.80
2010,02,16,09,15,8.90
2010,02,16,09,17,8.90
2010,02,16,09,18,8.90
2010,02,16,09,20,9.00
2010,02,16,09,21,9.10
2010,02,16,09,23,9.10
2010,02,16,09,24,9.20
2010,02,16,09,25,9.20
2010,02,16,09,26,9.20
2010,02,16,09,28,9.30
2010,02,16,09,30,9.30
2010,02,16,09,31,9.30
2010,02,16,09,32,9.30
2010,02,16,09,34,9.30
2010,02,16,09,35,9.40
2010,02,16,09,36,9.40
2010,02,16,09,37,9.40
2010,02,16,09,39,9.40
2010,02,16,09,40,9.40
2010,02,16,09,41,9.40
2010,02,16,09,42,9.40
2010,02,16,09,43,9.40
2010,02,16,09,44,9.50
2010,02,16,09,46,9.50
2010,02,16,09,47,9.60
2010,02,16,09,48,9.60
2010,02,16,09,50,9.60
2010,02,16,09,52,9.70
2010,02,16,09,53,9.70
2010,02,16,09,54,9.70
2010,02,16,09,55,9.70
2010,02,16,09,57,9.70
2010,02,16,09,58,9.80
2010,02,16,10,00,9.80
2010,02,16,10,02,9.80
2010,02,16,10,03,9.90
2010,02,16,10,04,9.90
2010,02,16,10,05,9.90
2010,02,16,10,07,10.00
2010,02,16,10,08,10.00
2010,02,16,10,09,10.00
2010,02,16,10,10,10.10
2010,02,16,10,11,10.20
2010,02,16,10,12,10.20
2010,02,16,10,14,10.30
2010,02,16,10,15,10.30
2010,02,16,10,16,10.30
2010,02,16,10,17,10.30
2010,02,16,10,19,10.30
2010,02,16,10,20,10.30
2010,02,16,10,21,10.30
2010,02,16,10,22,10.30
2010,02,16,10,23,10.30
2010,02,16,10,25,10.30
2010,02,16,10,26,10.40
2010,02,16,10,27,10.40
2010,02,16,10,28,10.40
2010,02,16,10,31,10.40
2010,02,16,10,33,10.50
2010,02,16,10,34,10.50
2010,02,16,10,35,10.60
2010,02,16,10,36,10.60
2010,02,16,10,37,10.60
2010,02,16,10,39,10.60
2010,02,16,10,40,10.60
2010,02,16,10,41,10.70
2010,02,16,10,42,10.70
2010,02,16,10,44,10.70
2010,02,16,10,45,10.80
2010,02,16,10,46,10.80
2010,02,16,10,47,10.80
2010,02,16,10,48,10.80
2010,02,16,10,50,10.80
2010,02,16,10,51,10.80
2010,02,16,10,52,10.90
2010,02,16,10,53,10.80
2010,02,16,10,54,10.80
2010,02,16,10,56,10.80
2010,02,16,10,57,10.80
2010,02,16,10,58,10.80
2010,02,16,11,00,10.90
2010,02,16,11,02,10.90
2010,02,16,11,03,11.00
2010,02,16,11,04,11.00
2010,02,16,11,05,11.10
2010,02,16,11,07,11.10
2010,02,16,11,08,11.10
2010,02,16,11,10,11.10
2010,02,16,11,12,11.20
2010,02,16,11,13,11.20
2010,02,16,11,14,11.20
2010,02,16,11,15,11.20
2010,02,16,11,16,11.20
2010,02,16,11,17,11.30
2010,02,16,11,19,11.30
2010,02,16,11,20,11.30
2010,02,16,11,21,11.30
2010,02,16,11,22,11.30
2010,02,16,11,24,11.30
2010,02,16,11,25,11.30
2010,02,16,11,26,11.40
2010,02,16,11,27,11.40
2010,02,16,11,29,11.40
2010,02,16,11,30,11.40
2010,02,16,11,31,11.40
2010,02,16,11,32,11.40
2010,02,16,11,33,11.40
2010,02,16,11,34,11.40
2010,02,16,11,36,11.40
2010,02,16,11,37,11.50
2010,02,16,11,38,11.50
2010,02,16,11,40,11.40
2010,02,16,11,42,11.60
2010,02,16,11,43,11.60
2010,02,16,11,44,11.60
2010,02,16,11,45,11.60
2010,02,16,11,46,11.50
2010,02,16,11,48,11.50
2010,02,16,11,49,11.40
2010,02,16,11,50,11.40
2010,02,16,11,51,11.30
2010,02,16,11,52,11.30
2010,02,16,11,54,11.30
2010,02,16,11,55,11.40
2010,02,16,11,56,11.40
2010,02,16,11,57,11.40
2010,02,16,11,58,11.50
2010,02,16,12,00,11.50
2010,02,16,12,01,11.50
2010,02,16,12,02,11.50
2010,02,16,12,03,11.50
2010,02,16,12,04,11.50
2010,02,16,12,06,11.50
2010,02,16,12,07,11.50
2010,02,16,12,08,11.60
2010,02,16,12,10,11.70
2010,02,16,12,12,11.70
2010,02,16,12,13,11.70
2010,02,16,12,14,11.70
2010,02,16,12,15,11.70
2010,02,16,12,16,11.70
2010,02,16,12,18,11.70
2010,02,16,12,20,11.80
2010,02,16,12,21,11.90
2010,02,16,12,23,11.90
2010,02,16,12,24,11.80
2010,02,16,12,25,11.80
2010,02,16,12,26,11.80
2010,02,16,12,27,11.70
2010,02,16,12,29,11.70
2010,02,16,12,30,11.70
2010,02,16,12,33,11.60
2010,02,16,12,34,11.60
2010,02,16,12,35,11.50
2010,02,16,12,36,11.40
2010,02,16,12,38,11.40
2010,02,16,12,40,11.40
2010,02,16,12,41,11.40
2010,02,16,12,43,11.40
2010,02,16,12,44,11.30
2010,02,16,12,45,11.30
2010,02,16,12,46,11.30
2010,02,16,12,47,11.30
2010,02,16,12,49,11.30
2010,02,16,12,50,11.30
2010,02,16,12,51,11.30
2010,02,16,12,52,11.30
2010,02,16,12,53,11.30
2010,02,16,12,55,11.40
2010,02,16,12,56,11.40
2010,02,16,12,57,11.40
2010,02,16,12,58,11.40
2010,02,16,13,00,11.30
2010,02,16,13,02,11.40
2010,02,16,13,03,11.40
2010,02,16,13,04,11.40
2010,02,16,13,05,11.40
2010,02,16,13,07,11.40
2010,02,16,13,08,11.40
2010,02,16,13,10,11.40
2010,02,16,13,11,11.40
2010,02,16,13,13,11.40
2010,02,16,13,14,11.40
2010,02,16,13,15,11.40
2010,02,16,13,16,11.40
2010,02,16,13,18,11.40
2010,02,16,13,19,11.40
2010,02,16,13,20,11.40
2010,02,16,13,21,11.40
2010,02,16,13,22,11.40
2010,02,16,13,24,11.40
2010,02,16,13,25,11.30
2010,02,16,13,26,11.30
2010,02,16,13,27,11.40
2010,02,16,13,29,11.40
2010,02,16,13,30,11.40
2010,02,16,13,32,11.40
2010,02,16,13,33,11.40
2010,02,16,13,34,11.40
2010,02,16,13,36,11.40
2010,02,16,13,37,11.40
2010,02,16,13,38,11.50
2010,02,16,13,39,11.50
2010,02,16,13,42,11.40
2010,02,16,13,43,11.50
2010,02,16,13,44,11.50
2010,02,16,13,45,11.60
2010,02,16,13,46,11.60
2010,02,16,13,48,11.70
2010,02,16,13,50,11.80
2010,02,16,13,51,11.80
2010,02,16,13,52,11.90
2010,02,16,13,54,11.90
2010,02,16,13,55,11.90
2010,02,16,13,56,12.00
2010,02,16,13,57,12.00
2010,02,16,13,59,12.00
2010,02,16,14,00,12.00
2010,02,16,14,02,12.00
2010,02,16,14,04,12.00
2010,02,16,14,05,12.00
2010,02,16,14,06,12.00
2010,02,16,14,07,12.00
2010,02,16,14,08,12.00
2010,02,16,14,09,12.00
2010,02,16,14,11,12.00
2010,02,16,14,12,12.00
2010,02,16,14,13,12.00
2010,02,16,14,14,12.00
2010,02,16,14,16,12.00
2010,02,16,14,17,12.10
2010,02,16,14,18,12.10
2010,02,16,14,19,12.10
2010,02,16,14,22,12.10
2010,02,16,14,23,12.10
2010,02,16,14,24,12.10
2010,02,16,14,25,12.10
2010,02,16,14,26,12.10
2010,02,16,14,28,12.10
2010,02,16,14,30,12.10
2010,02,16,14,32,12.10
2010,02,16,14,34,12.10
2010,02,16,14,35,12.00
2010,02,16,14,36,12.00
2010,02,16,14,37,12.10
2010,02,16,14,38,12.00
2010,02,16,14,40,12.00
2010,02,16,14,41,12.00
2010,02,16,14,42,12.00
2010,02,16,14,43,12.00
2010,02,16,14,44,11.90
2010,02,16,14,46,11.90
2010,02,16,14,47,11.90
2010,02,16,14,48,11.90
2010,02,16,14,49,11.90
2010,02,16,14,52,11.90
2010,02,16,14,53,11.90
2010,02,16,14,54,11.90
2010,02,16,14,55,11.90
2010,02,16,14,57,11.90
2010,02,16,14,58,11.90
2010,02,16,15,00,11.90
2010,02,16,15,03,11.90
2010,02,16,15,04,11.80
2010,02,16,15,05,11.80
2010,02,16,15,06,11.80
2010,02,16,15,08,11.80
2010,02,16,15,09,11.80
2010,02,16,15,10,11.80
2010,02,16,15,11,11.80
2010,02,16,15,12,11.80
2010,02,16,15,14,11.90
2010,02,16,15,15,11.90
2010,02,16,15,16,11.90
2010,02,16,15,17,11.90
2010,02,16,15,19,11.90
2010,02,16,15,20,11.90
2010,02,16,15,21,12.00
2010,02,16,15,22,12.00
2010,02,16,15,24,12.10
2010,02,16,15,25,12.00
2010,02,16,15,26,12.00
2010,02,16,15,27,12.10
2010,02,16,15,29,12.10
2010,02,16,15,30,12.10
2010,02,16,15,32,12.10
2010,02,16,15,33,12.10
2010,02,16,15,34,12.10
2010,02,16,15,35,12.10
2010,02,16,15,37,12.10
2010,02,16,15,38,12.00
2010,02,16,15,40,12.00
2010,02,16,15,41,11.90
2010,02,16,15,42,11.90
2010,02,16,15,44,11.90
2010,02,16,15,45,11.90
2010,02,16,15,46,11.90
2010,02,16,15,47,11.80
2010,02,16,15,49,11.80
2010,02,16,15,50,11.80
2010,02,16,15,51,11.70
2010,02,16,15,52,11.70
2010,02,16,15,54,11.70
2010,02,16,15,55,11.70
2010,02,16,15,56,11.60
2010,02,16,15,57,11.60
2010,02,16,15,58,11.60
2010,02,16,16,00,11.60
2010,02,16,16,02,11.50
2010,02,16,16,03,11.50
2010,02,16,16,04,11.50
2010,02,16,16,06,11.40
2010,02,16,16,07,11.40
2010,02,16,16,08,11.40
2010,02,16,16,09,11.30
2010,02,16,16,11,11.30
2010,02,16,16,12,11.20
2010,02,16,16,13,11.20
2010,02,16,16,14,11.20
2010,02,16,16,16,11.20
2010,02,16,16,17,11.10
2010,02,16,16,18,11.10
2010,02,16,16,20,11.10
2010,02,16,16,21,11.00
2010,02,16,16,23,10.90
2010,02,16,16,24,10.90
2010,02,16,16,25,10.90
2010,02,16,16,26,10.80
2010,02,16,16,27,10.80
2010,02,16,16,29,10.80
2010,02,16,16,30,10.80
2010,02,16,16,31,10.70
2010,02,16,16,32,10.70
2010,02,16,16,33,10.70
2010,02,16,16,35,10.70
2010,02,16,16,36,10.60
2010,02,16,16,37,10.60
2010,02,16,16,38,10.50
2010,02,16,16,39,10.50
2010,02,16,16,41,10.40
2010,02,16,16,42,10.40
2010,02,16,16,43,10.30
2010,02,16,16,44,10.30
2010,02,16,16,45,10.30
2010,02,16,16,46,10.30
2010,02,16,16,48,10.20
2010,02,16,16,50,10.20
2010,02,16,16,51,10.10
2010,02,16,16,53,10.10
2010,02,16,16,54,10.10
2010,02,16,16,55,10.00
2010,02,16,16,56,10.00
2010,02,16,16,57,9.90
2010,02,16,16,59,9.90
2010,02,16,17,00,9.90
2010,02,16,17,01,9.80
2010,02,16,17,02,9.80
2010,02,16,17,03,9.80
2010,02,16,17,05,9.80
2010,02,16,17,06,9.70
2010,02,16,17,07,9.70
2010,02,16,17,08,9.70
2010,02,16,17,10,9.60
2010,02,16,17,11,9.60
2010,02,16,17,12,9.60
2010,02,16,17,13,9.50
2010,02,16,17,14,9.40
2010,02,16,17,16,9.40
2010,02,16,17,17,9.40
2010,02,16,17,18,9.30
2010,02,16,17,20,9.30
2010,02,16,17,22,9.20
2010,02,16,17,23,9.20
2010,02,16,17,24,9.10
2010,02,16,17,25,9.10
2010,02,16,17,26,9.00
2010,02,16,17,28,8.90
2010,02,16,17,30,8.80
2010,02,16,17,31,8.80
2010,02,16,17,33,8.70
2010,02,16,17,36,8.60
2010,02,16,17,38,8.50
2010,02,16,17,39,8.40
2010,02,16,17,42,8.40
2010,02,16,17,43,8.30
2010,02,16,17,45,8.30
2010,02,16,17,48,8.20
2010,02,16,17,49,8.20
2010,02,16,17,50,8.20
2010,02,16,17,52,8.10
2010,02,16,17,54,8.00
2010,02,16,17,55,7.90
2010,02,16,17,56,7.90
2010,02,16,17,59,7.80
2010,02,16,18,00,7.80
2010,02,16,18,01,7.80
2010,02,16,18,04,7.70
2010,02,16,18,05,7.70
2010,02,16,18,07,7.60
2010,02,16,18,09,7.60
2010,02,16,18,10,7.50
2010,02,16,18,12,7.40
2010,02,16,18,13,7.40
2010,02,16,18,15,7.30
2010,02,16,18,16,7.30
2010,02,16,18,17,7.30
2010,02,16,18,19,7.20
2010,02,16,18,21,7.10
2010,02,16,18,23,7.10
2010,02,16,18,24,7.10
2010,02,16,18,26,7.00
2010,02,16,18,27,7.00
2010,02,16,18,28,7.00
2010,02,16,18,30,7.00
2010,02,16,18,31,6.90
2010,02,16,18,33,6.90
2010,02,16,18,34,6.90
2010,02,16,18,35,6.90
2010,02,16,18,36,6.80
2010,02,16,18,37,6.80
2010,02,16,18,39,6.80
2010,02,16,18,40,6.80
2010,02,16,18,41,6.70
2010,02,16,18,42,6.70
2010,02,16,18,44,6.70
2010,02,16,18,45,6.70
2010,02,16,18,46,6.60
2010,02,16,18,47,6.60
2010,02,16,18,48,6.60
2010,02,16,18,50,6.60
2010,02,16,18,51,6.60
2010,02,16,18,52,6.60
2010,02,16,18,53,6.50
2010,02,16,18,55,6.50
2010,02,16,18,56,6.50
2010,02,16,18,57,6.50
2010,02,16,18,58,6.50
2010,02,16,19,00,6.40
2010,02,16,19,01,6.40
2010,02,16,19,02,6.40
2010,02,16,19,03,6.40
2010,02,16,19,04,6.40
2010,02,16,19,06,6.40
2010,02,16,19,07,6.40
2010,02,16,19,08,6.30
2010,02,16,19,10,6.30
2010,02,16,19,12,6.30
2010,02,16,19,13,6.30
2010,02,16,19,14,6.30
2010,02,16,19,15,6.20
2010,02,16,19,16,6.20
2010,02,16,19,18,6.20
2010,02,16,19,20,6.10
2010,02,16,19,21,6.10
2010,02,16,19,23,6.00
2010,02,16,19,24,6.00
2010,02,16,19,25,6.00
2010,02,16,19,26,6.00
2010,02,16,19,27,6.00
2010,02,16,19,29,6.00
2010,02,16,19,31,6.00
2010,02,16,19,32,5.90
2010,02,16,19,33,5.90
2010,02,16,19,34,5.90
2010,02,16,19,35,5.90
2010,02,16,19,37,5.90
2010,02,16,19,38,5.90
2010,02,16,19,40,5.90
2010,02,16,19,41,5.90
2010,02,16,19,43,5.90
2010,02,16,19,44,5.90
2010,02,16,19,45,5.90
2010,02,16,19,46,5.90
2010,02,16,19,47,5.90
2010,02,16,19,49,5.90
2010,02,16,19,50,5.90
2010,02,16,19,51,5.90
2010,02,16,19,52,5.90
2010,02,16,19,54,5.90
2010,02,16,19,55,5.80
2010,02,16,19,56,5.80
2010,02,16,19,57,5.70
2010,02,16,19,58,5.70
2010,02,16,20,00,5.60
2010,02,16,20,01,5.40
2010,02,16,20,02,5.40
2010,02,16,20,03,5.30
2010,02,16,20,04,5.30
2010,02,16,20,06,5.20
2010,02,16,20,07,5.20
2010,02,16,20,08,5.10
2010,02,16,20,09,5.10
2010,02,16,20,11,5.10
2010,02,16,20,12,5.00
2010,02,16,20,13,5.00
2010,02,16,20,14,5.00
2010,02,16,20,16,5.00
2010,02,16,20,17,4.90
2010,02,16,20,18,4.90
2010,02,16,20,20,4.90
2010,02,16,20,21,4.90
2010,02,16,20,23,4.80
2010,02,16,20,24,4.80
2010,02,16,20,25,4.80
2010,02,16,20,26,4.80
2010,02,16,20,28,4.80
2010,02,16,20,29,4.70
2010,02,16,20,30,4.70
2010,02,16,20,31,4.70
2010,02,16,20,32,4.70
2010,02,16,20,33,4.70
2010,02,16,20,35,4.60
2010,02,16,20,36,4.60
2010,02,16,20,37,4.60
2010,02,16,20,38,4.50
2010,02,16,20,40,4.50
2010,02,16,20,41,4.40
2010,02,16,20,42,4.40
2010,02,16,20,43,4.40
2010,02,16,20,44,4.40
2010,02,16,20,46,4.40
2010,02,16,20,47,4.40
2010,02,16,20,48,4.40
2010,02,16,20,49,4.40
2010,02,16,20,52,4.40
2010,02,16,20,53,4.40
2010,02,16,20,54,4.40
2010,02,16,20,55,4.30
2010,02,16,20,57,4.30
2010,02,16,20,58,4.30
2010,02,16,21,00,4.20
2010,02,16,21,01,4.20
2010,02,16,21,02,4.20
2010,02,16,21,04,4.20
2010,02,16,21,05,4.20
2010,02,16,21,06,4.20
2010,02,16,21,07,4.10
2010,02,16,21,09,4.10
2010,02,16,21,10,4.10
2010,02,16,21,11,4.10
2010,02,16,21,12,4.00
2010,02,16,21,14,4.00
2010,02,16,21,15,4.00
2010,02,16,21,16,3.90
2010,02,16,21,17,3.90
2010,02,16,21,19,3.90
2010,02,16,21,20,3.90
2010,02,16,21,21,3.80
2010,02,16,21,22,3.80
2010,02,16,21,23,3.80
2010,02,16,21,25,3.80
2010,02,16,21,26,3.70
2010,02,16,21,27,3.70
2010,02,16,21,28,3.70
2010,02,16,21,30,3.60
2010,02,16,21,31,3.60
2010,02,16,21,32,3.60
2010,02,16,21,33,3.60
2010,02,16,21,34,3.60
2010,02,16,21,36,3.60
2010,02,16,21,37,3.60
2010,02,16,21,38,3.50
2010,02,16,21,39,3.50
2010,02,16,21,41,3.40
2010,02,16,21,42,3.40
2010,02,16,21,43,3.40
2010,02,16,21,44,3.30
2010,02,16,21,46,3.30
2010,02,16,21,47,3.30
2010,02,16,21,48,3.30
2010,02,16,21,50,3.20
2010,02,16,21,52,3.20
2010,02,16,21,53,3.20
2010,02,16,21,54,3.20
2010,02,16,21,55,3.20
2010,02,16,21,57,3.20
2010,02,16,21,58,3.30
2010,02,16,21,59,3.30
2010,02,16,22,00,3.20
2010,02,16,22,01,3.20
2010,02,16,22,02,3.20
2010,02,16,22,04,3.20
2010,02,16,22,05,3.20
2010,02,16,22,06,3.20
2010,02,16,22,07,3.10
2010,02,16,22,09,3.10
2010,02,16,22,10,3.10
2010,02,16,22,11,3.10
2010,02,16,22,12,3.10
2010,02,16,22,14,3.10
2010,02,16,22,15,3.10
2010,02,16,22,16,3.10
2010,02,16,22,17,3.00
2010,02,16,22,18,3.00
2010,02,16,22,20,3.00
2010,02,16,22,21,2.90
2010,02,16,22,22,2.90
2010,02,16,22,23,2.90
2010,02,16,22,25,2.90
2010,02,16,22,26,2.90
2010,02,16,22,27,2.90
2010,02,16,22,28,2.90
2010,02,16,22,29,2.90
2010,02,16,22,32,2.90
2010,02,16,22,33,2.90
2010,02,16,22,34,2.90
2010,02,16,22,35,2.80
2010,02,16,22,36,2.80
2010,02,16,22,38,2.80
2010,02,16,22,39,2.80
2010,02,16,22,40,2.80
2010,02,16,22,41,2.80
2010,02,16,22,42,2.80
2010,02,16,22,44,2.80
2010,02,16,22,45,2.80
2010,02,16,22,46,2.80
2010,02,16,22,47,2.80
2010,02,16,22,48,2.80
2010,02,16,22,50,2.80
2010,02,16,22,51,2.80
2010,02,16,22,52,2.80
2010,02,16,22,53,2.80
2010,02,16,22,54,2.70
2010,02,16,22,56,2.70
2010,02,16,22,57,2.70
2010,02,16,22,58,2.70
2010,02,16,22,59,2.70
2010,02,16,23,02,2.70
2010,02,16,23,03,2.60
2010,02,16,23,04,2.60
2010,02,16,23,05,2.60
2010,02,16,23,06,2.50
2010,02,16,23,08,2.50
2010,02,16,23,09,2.50
2010,02,16,23,10,2.40
2010,02,16,23,11,2.40
2010,02,16,23,12,2.40
2010,02,16,23,13,2.40
2010,02,16,23,15,2.50
2010,02,16,23,16,2.50
2010,02,16,23,17,2.50
2010,02,16,23,21,2.60
2010,02,16,23,22,2.60
2010,02,16,23,23,2.60
2010,02,16,23,24,2.60
2010,02,16,23,26,2.60
2010,02,16,23,27,2.60
2010,02,16,23,28,2.60
2010,02,16,23,30,2.70